Date,TemperatureHighF,TemperatureAvgF,TemperatureLowF,DewpointHighF,DewpointAvgF,DewpointLowF,HumidityHigh,HumidityAvg,HumidityLow,PressureMaxIn,PressureMinIn,WindSpeedMaxMPH,WindSpeedAvgMPH,GustSpeedMaxMPH,PrecipitationSumIn
2013-1-1,39,35,32,35,33,31,97,92,84,30.47,30.32,7,1,7,0.00
2013-1-2,41,35,32,37,34,31,97,94,84,30.32,30.16,8,1,8,0.02
2013-1-3,40,34,30,38,33,29,98,95,85,30.16,30.03,12,1,12,0.13
2013-1-4,43,39,36,41,38,35,97,95,93,30.24,30.08,8,1,8,0.10
2013-1-5,47,42,40,41,40,38,97,90,77,30.13,29.98,18,3,18,0.33
2013-1-6,42,41,39,40,38,37,95,90,84,30.04,29.86,16,2,16,0.38
2013-1-7,42,39,36,40,38,35,96,94,81,30.04,29.71,15,2,15,0.81
2013-1-8,46,39,35,45,38,34,97,94,89,30.08,29.51,19,2,21,1.12
2013-1-9,46,42,38,44,38,34,92,86,75,29.84,29.54,9,1,9,0.00
2013-1-10,42,36,31,35,31,26,96,85,67,30.10,29.84,10,1,11,0.00
2013-1-11,38,32,28,29,25,23,88,78,59,30.27,30.10,8,1,9,0.00
2013-1-12,37,32,28,30,26,24,90,79,71,30.39,30.27,6,1,7,0.00
2013-1-13,33,30,27,29,26,24,91,86,82,30.42,30.38,7,1,7,0.00
2013-1-14,34,33,31,32,30,27,93,90,85,30.53,30.40,4,0,4,0.00
2013-1-15,38,35,33,34,32,31,94,88,76,30.66,30.53,3,0,3,0.00
2013-1-16,37,36,33,33,32,31,93,87,84,30.63,30.49,5,0,5,0.00
2013-1-17,42,35,32,37,33,30,97,91,82,30.49,30.23,6,1,6,0.00
2013-1-18,41,35,32,38,34,32,97,95,86,30.29,30.21,7,1,7,0.01
2013-1-19,42,36,33,38,34,32,97,95,84,30.34,30.29,6,1,6,0.00
2013-1-20,41,35,33,38,34,32,97,96,88,30.35,30.23,4,0,4,0.01
2013-1-21,35,32,30,34,32,30,98,97,97,30.23,30.07,5,0,5,0.00
2013-1-22,37,34,32,36,33,31,98,96,90,30.09,29.86,8,1,9,0.00
2013-1-23,41,40,37,40,38,34,97,95,83,30.01,29.74,12,1,12,0.47
2013-1-24,43,40,38,39,38,35,97,90,74,30.11,29.92,18,3,20,0.09
2013-1-25,49,44,40,44,39,35,94,85,69,29.97,29.81,14,2,14,0.01
2013-1-26,44,41,38,40,38,37,96,91,83,29.93,29.78,17,1,17,0.18
2013-1-27,42,39,37,39,37,36,96,94,86,29.93,29.87,10,1,10,0.11
2013-1-28,40,38,37,37,36,34,95,90,81,29.96,29.90,14,3,14,0.06
2013-1-29,42,40,38,40,38,36,96,93,89,30.23,29.96,12,1,12,0.10
2013-1-30,42,40,39,41,39,38,97,95,93,30.30,30.23,6,1,6,0.02
2013-1-31,47,43,41,45,42,40,97,95,91,30.30,30.19,10,1,11,0.12
2013-2-1,49,43,39,44,41,38,97,94,80,30.37,30.26,4,0,5,0.00
2013-2-2,43,39,36,41,38,35,98,96,92,30.37,30.18,5,0,5,0.00
2013-2-3,42,41,39,40,39,38,97,94,91,30.23,30.08,6,0,6,0.05
2013-2-4,46,43,40,42,40,38,96,91,79,30.09,29.75,16,2,16,0.04
2013-2-5,46,44,42,42,41,39,96,88,79,29.77,29.67,22,6,22,0.11
2013-2-6,48,44,42,41,40,38,92,86,69,29.91,29.65,26,6,27,0.11
2013-2-7,48,43,37,41,38,35,94,82,67,30.15,29.64,28,5,35,0.10
2013-2-8,41,38,34,38,36,33,96,92,84,30.25,30.15,6,1,7,0.00
2013-2-9,41,39,38,39,37,36,96,93,86,30.31,30.21,5,0,5,0.03
2013-2-10,42,40,39,40,38,36,95,91,86,30.33,30.26,5,1,6,0.00
2013-2-11,44,41,39,41,39,37,96,93,88,30.28,30.25,7,1,7,0.00
2013-2-12,46,42,40,43,40,39,95,91,81,30.30,30.14,13,1,13,0.01
2013-2-13,50,44,40,42,39,38,92,83,67,30.41,30.17,14,1,15,0.00
2013-2-14,45,42,40,43,40,38,96,93,87,30.54,30.41,8,1,8,0.20
2013-2-15,50,44,41,44,41,40,97,91,75,30.54,30.11,6,1,6,0.00
2013-2-16,47,43,40,44,41,36,96,90,79,30.11,30.00,12,2,13,0.03
2013-2-17,44,40,37,39,36,33,91,84,76,30.15,30.04,14,2,14,0.00
2013-2-18,41,39,38,37,36,34,94,88,81,30.04,29.70,12,2,14,0.11
2013-2-19,49,42,36,41,36,34,93,81,63,29.92,29.70,16,2,16,0.00
2013-2-20,41,39,35,38,36,33,93,89,81,29.95,29.91,8,1,8,0.04
2013-2-21,46,42,39,41,38,36,92,87,79,29.93,29.86,21,3,21,0.06
2013-2-22,48,41,36,43,37,32,94,85,65,29.90,29.48,28,6,28,0.39
2013-2-23,49,42,36,37,33,27,91,72,45,30.24,29.72,19,3,20,0.00
2013-2-24,43,41,38,39,37,34,93,87,79,30.25,29.74,29,6,30,0.11
2013-2-25,49,43,38,40,35,27,93,75,48,30.17,29.63,28,6,29,0.13
2013-2-26,44,39,36,38,35,31,91,85,75,30.22,30.05,24,5,24,0.13
2013-2-27,45,40,35,39,37,34,96,88,69,30.24,30.08,10,1,19,0.03
2013-2-28,47,40,36,45,38,34,95,92,84,30.22,30.11,15,2,16,0.47
2013-3-1,50,48,44,48,46,42,97,95,92,30.17,30.12,16,3,16,0.93
2013-3-2,47,44,39,46,42,35,98,93,83,30.15,29.96,15,3,15,0.38
2013-3-3,50,41,36,38,34,32,92,77,61,30.25,30.08,14,3,14,0.00
2013-3-4,47,40,34,40,34,31,92,81,61,30.25,29.92,14,2,14,0.00
2013-3-5,44,40,37,38,35,30,95,83,70,29.93,29.73,16,1,16,0.16
2013-3-6,46,41,38,41,38,36,95,89,79,29.79,29.58,10,1,10,0.00
2013-3-7,45,42,38,42,39,36,96,90,84,30.06,29.79,9,1,9,0.03
2013-3-8,52,42,36,43,38,35,97,87,63,30.18,30.04,11,2,11,0.01
2013-3-9,47,42,36,43,38,34,94,86,72,30.41,30.18,9,1,9,0.00
2013-3-10,47,44,40,43,40,38,94,88,82,30.41,30.34,8,1,9,0.00
2013-3-11,47,43,40,42,39,37,94,88,75,30.37,30.05,11,1,11,0.13
2013-3-12,51,45,39,48,43,38,96,93,88,30.05,29.88,21,3,22,0.80
2013-3-13,51,50,48,48,48,46,95,93,89,30.06,29.92,19,5,20,0.54
2013-3-14,51,48,44,48,46,42,95,92,83,30.04,29.92,20,3,20,0.26
2013-3-15,51,47,43,48,45,41,94,92,85,30.11,30.03,9,2,10,0.09
2013-3-16,48,43,38,44,40,34,95,89,72,30.03,29.75,21,2,21,0.15
2013-3-17,49,42,37,36,32,26,85,70,44,30.06,29.84,15,3,16,0.00
2013-3-18,50,42,36,37,30,20,91,65,31,30.17,29.94,22,4,22,0.02
2013-3-19,46,41,36,40,34,29,92,78,59,30.17,29.47,22,3,24,0.20
2013-3-20,51,44,37,46,41,35,94,87,66,29.84,29.19,26,6,26,0.69
2013-3-21,48,40,32,36,32,28,94,77,50,30.12,29.85,14,3,14,0.00
2013-3-22,47,39,31,34,31,27,93,74,55,30.31,30.12,14,3,15,0.00
2013-3-23,48,40,34,36,33,30,91,75,60,30.33,30.25,12,2,12,0.00
2013-3-24,46,42,38,37,34,32,82,74,59,30.25,30.08,8,1,8,0.00
2013-3-25,55,46,40,41,36,27,83,68,37,30.08,29.91,9,1,9,0.00
2013-3-26,53,47,42,44,40,37,86,77,60,29.97,29.91,7,1,7,0.00
2013-3-27,56,48,40,47,42,37,90,81,66,29.94,29.88,8,2,9,0.00
2013-3-28,56,50,47,48,44,42,87,80,73,30.07,29.94,7,2,7,0.00
2013-3-29,54,48,44,49,45,41,92,87,78,30.21,30.07,7,2,7,0.00
2013-3-30,63,51,42,49,45,40,92,80,56,30.23,30.04,11,2,11,0.00
2013-3-31,61,52,44,50,44,39,85,73,61,30.05,29.85,8,1,8,0.00
2013-4-1,56,52,46,49,45,39,89,77,66,30.02,29.88,12,2,13,0.00
2013-4-2,55,50,47,48,46,43,91,85,72,30.13,30.02,13,2,14,0.00
2013-4-3,59,50,45,48,45,42,93,82,58,30.13,29.92,7,1,7,0.00
2013-4-4,53,49,47,50,46,43,96,88,79,29.93,29.50,19,1,19,0.54
2013-4-5,54,51,48,50,48,46,95,89,79,29.73,29.53,18,4,18,0.65
2013-4-6,53,48,44,47,43,38,93,82,64,29.79,29.53,28,4,28,0.24
2013-4-7,53,46,42,44,41,38,92,81,61,29.78,29.53,12,1,13,0.01
2013-4-8,53,48,44,47,43,40,91,84,69,30.16,29.78,10,2,10,0.00
2013-4-9,50,47,44,45,43,40,93,85,76,30.26,30.05,17,3,20,0.07
2013-4-10,60,50,46,47,44,37,95,81,44,30.10,29.77,29,6,29,0.53
2013-4-11,54,47,43,44,37,30,90,70,45,30.20,30.10,16,4,17,0.00
2013-4-12,45,42,37,41,37,33,94,84,71,30.09,29.54,27,5,31,0.16
2013-4-13,49,42,36,41,35,29,92,78,66,29.90,29.61,23,2,23,0.02
2013-4-14,50,43,38,42,38,36,93,82,67,29.94,29.85,11,2,11,0.04
2013-4-15,55,46,39,46,40,33,92,80,47,30.13,29.86,12,2,12,0.00
2013-4-16,57,48,40,45,37,30,85,68,41,30.31,30.14,14,3,14,0.00
2013-4-17,54,49,44,45,40,34,90,71,58,30.35,30.30,11,2,11,0.00
2013-4-18,47,45,43,45,43,42,95,93,90,30.34,30.09,15,2,15,0.87
2013-4-19,57,48,43,51,46,42,96,92,77,30.08,29.99,12,2,12,0.52
2013-4-20,56,50,46,48,43,39,96,77,55,30.15,30.06,15,3,16,0.00
2013-4-21,54,48,43,42,38,31,89,70,51,30.34,30.14,20,3,20,0.00
2013-4-22,59,48,40,44,36,30,84,65,36,30.50,30.34,11,3,12,0.00
2013-4-23,59,50,42,47,40,34,79,68,42,30.35,30.22,9,2,9,0.00
2013-4-24,62,53,44,50,43,38,80,68,46,30.27,29.98,14,2,15,0.00
2013-4-25,59,53,45,51,45,39,81,74,63,30.05,29.97,11,2,11,0.00
2013-4-26,56,52,47,49,46,43,88,80,68,30.17,30.05,11,2,12,0.00
2013-4-27,59,53,48,50,45,40,89,76,62,30.09,29.99,23,2,23,0.09
2013-4-28,53,49,44,43,38,31,87,67,46,30.12,29.82,18,3,20,0.03
2013-4-29,54,47,42,43,32,23,89,56,32,30.06,29.81,31,7,34,0.00
2013-4-30,54,46,38,40,33,25,74,62,34,30.37,30.06,15,3,15,0.00
2013-5-1,56,48,38,43,36,24,84,64,29,30.55,30.37,8,2,8,0.00
2013-5-2,60,54,50,44,42,39,78,64,48,30.35,30.33,8,1,8,0.00
2013-5-3,68,56,45,52,46,41,86,71,49,30.38,30.18,12,2,13,0.00
2013-5-4,72,59,49,54,48,44,84,68,45,30.23,29.97,11,2,11,0.00
2013-5-5,83,66,53,53,47,42,73,53,25,29.98,29.72,9,1,9,0.00
2013-5-6,70,64,57,59,49,41,75,58,41,29.81,29.68,10,1,10,0.00
2013-5-7,64,60,56,55,51,47,84,73,62,29.89,29.72,10,2,10,0.00
2013-5-8,61,57,52,54,52,49,93,84,75,30.06,29.89,11,2,11,0.00
2013-5-9,65,58,51,56,52,49,95,82,67,30.16,30.04,7,1,7,0.00
2013-5-10,72,61,53,55,53,51,94,77,53,30.15,30.05,6,1,6,0.00
2013-5-11,64,59,57,57,54,50,95,84,69,30.08,29.91,13,1,14,0.54
2013-5-12,64,60,57,59,57,52,96,89,78,29.98,29.89,15,3,15,0.40
2013-5-13,59,55,49,53,50,44,95,85,72,30.06,29.80,15,2,15,0.40
2013-5-14,60,53,47,50,46,43,92,78,66,30.14,30.06,10,2,10,0.02
2013-5-15,61,54,48,50,47,44,94,80,56,30.07,29.92,11,2,11,0.09
2013-5-16,65,56,51,54,51,47,93,82,60,29.96,29.82,15,2,15,0.04
2013-5-17,59,55,51,54,51,48,92,87,82,29.95,29.84,15,2,15,0.02
2013-5-18,60,55,52,52,50,47,91,83,71,30.20,29.95,11,2,11,0.01
2013-5-19,66,57,52,52,49,44,90,76,51,30.32,30.20,16,3,16,0.00
2013-5-20,59,54,49,54,48,44,93,81,68,30.28,29.86,11,2,11,0.09
2013-5-21,51,50,47,48,46,44,94,88,79,29.86,29.71,13,2,14,0.24
2013-5-22,58,52,46,52,47,44,94,83,71,29.85,29.76,23,2,23,0.06
2013-5-23,59,53,46,48,45,42,93,76,56,29.94,29.85,21,2,21,0.18
2013-5-24,62,54,45,51,46,42,92,75,57,29.95,29.92,11,2,11,0.00
2013-5-25,59,54,46,52,47,43,89,79,66,29.96,29.92,12,3,12,0.00
2013-5-26,60,55,50,53,49,45,90,82,75,29.93,29.87,11,2,11,0.00
2013-5-27,60,55,53,53,51,47,94,86,62,29.87,29.64,17,2,18,0.46
2013-5-28,58,53,51,52,51,48,95,92,80,29.80,29.66,15,2,16,0.63
2013-5-29,57,52,50,54,50,48,95,92,86,29.85,29.64,7,1,8,0.24
2013-5-30,57,53,50,51,49,47,94,85,71,30.16,29.85,14,2,15,0.02
2013-5-31,61,54,49,54,49,47,96,84,66,30.28,30.16,9,2,9,0.20
2013-6-1,62,55,51,53,50,47,90,81,66,30.18,30.03,7,2,7,0.02
2013-6-2,68,58,50,55,51,47,94,76,53,30.03,29.93,15,3,15,0.00
2013-6-3,64,58,51,55,51,48,90,78,65,30.05,29.98,9,2,9,0.00
2013-6-4,73,62,52,58,53,48,91,74,49,30.09,29.95,8,1,8,0.00
2013-6-5,73,65,58,60,54,38,87,69,30,30.02,29.95,15,2,15,0.01
2013-6-6,71,63,53,57,52,44,86,68,44,30.00,29.91,6,1,6,0.00
2013-6-7,66,62,58,57,54,49,86,75,66,30.04,29.90,16,2,16,0.00
2013-6-8,63,58,53,55,52,48,90,80,71,30.10,30.03,10,2,11,0.00
2013-6-9,65,59,52,53,49,43,92,70,49,30.03,29.95,14,3,15,0.00
2013-6-10,68,59,50,56,50,45,86,73,55,29.96,29.79,16,2,16,0.00
2013-6-11,62,58,53,52,49,46,87,73,60,29.99,29.80,18,4,18,0.02
2013-6-12,62,56,52,52,50,47,90,80,64,30.07,29.99,12,2,14,0.02
2013-6-13,66,58,49,55,51,46,92,78,60,30.10,30.07,10,2,10,0.00
2013-6-14,63,58,54,55,52,50,89,81,71,30.14,30.03,13,2,13,0.00
2013-6-15,71,61,52,59,54,49,93,78,56,30.02,29.86,13,2,13,0.00
2013-6-16,70,64,58,59,55,48,82,74,58,29.99,29.90,13,2,13,0.00
2013-6-17,69,64,60,58,55,50,88,75,55,29.98,29.83,13,3,13,0.02
2013-6-18,66,60,55,58,54,50,94,81,65,29.90,29.84,14,2,15,0.39
2013-6-19,68,60,54,57,54,50,94,80,56,29.89,29.81,11,2,11,0.13
2013-6-20,59,57,55,56,53,51,93,86,79,30.01,29.81,14,2,16,0.15
2013-6-21,65,59,54,57,54,52,96,86,74,30.10,30.00,10,2,10,0.03
2013-6-22,69,62,58,58,56,54,90,81,64,30.06,29.82,7,1,7,0.00
2013-6-23,65,60,55,61,57,52,95,87,75,29.82,29.54,7,1,7,0.08
2013-6-24,64,60,58,60,57,55,97,91,79,29.62,29.47,17,2,18,1.04
2013-6-25,65,60,56,59,56,54,95,89,75,29.73,29.59,13,2,15,0.26
2013-6-26,67,61,58,60,56,54,92,86,74,30.01,29.73,18,3,19,0.07
2013-6-27,64,61,58,61,58,55,95,90,81,30.16,29.97,10,2,10,0.30
2013-6-28,68,63,59,62,60,57,94,89,79,30.16,30.00,12,2,12,0.00
2013-6-29,77,68,61,65,62,59,92,80,63,30.04,29.92,7,1,8,0.00
2013-6-30,86,73,64,68,63,58,86,71,50,29.96,29.79,10,2,10,0.00
2013-7-1,82,73,66,69,64,58,85,75,57,29.92,29.82,8,1,8,0.00
2013-7-2,74,69,64,67,63,57,89,80,70,30.02,29.92,11,2,11,0.00
2013-7-3,73,66,58,60,56,51,87,71,52,30.07,29.95,10,2,10,0.00
2013-7-4,71,64,58,58,55,51,84,73,58,30.01,29.94,10,2,10,0.00
2013-7-5,72,64,55,59,54,50,83,72,54,29.96,29.84,13,3,14,0.00
2013-7-6,82,67,54,59,54,50,88,66,35,29.94,29.77,13,2,14,0.00
2013-7-7,72,64,56,59,56,53,91,75,60,29.87,29.79,17,2,17,0.00
2013-7-8,70,64,56,60,57,53,94,80,68,30.01,29.86,9,2,9,0.00
2013-7-9,76,68,60,63,59,56,89,74,52,30.05,29.90,6,1,6,0.00
2013-7-10,69,65,59,61,57,52,91,77,64,29.95,29.82,11,2,13,0.00
2013-7-11,68,62,57,53,49,44,78,63,47,29.98,29.85,15,3,15,0.00
2013-7-12,70,63,55,56,51,47,82,67,48,30.00,29.93,14,3,15,0.00
2013-7-13,70,62,54,58,52,47,79,70,54,30.14,30.00,10,2,10,0.00
2013-7-14,74,64,55,58,52,45,83,66,40,30.06,29.94,16,2,16,0.00
2013-7-15,81,68,55,58,52,44,84,60,30,30.03,29.86,15,2,16,0.00
2013-7-16,81,70,59,60,54,47,74,57,31,29.89,29.76,11,2,11,0.00
2013-7-17,73,69,64,62,58,52,83,69,53,30.10,29.77,13,2,13,0.00
2013-7-18,72,66,59,65,59,56,92,79,65,30.16,30.03,9,2,10,0.00
2013-7-19,72,67,61,64,61,58,92,82,74,30.09,29.95,8,2,8,0.00
2013-7-20,70,66,61,63,60,58,92,83,74,29.99,29.88,9,2,10,0.00
2013-7-21,70,65,58,61,59,56,92,81,71,29.90,29.83,8,2,8,0.00
2013-7-22,71,66,59,62,59,55,89,79,71,29.97,29.85,9,2,10,0.00
2013-7-23,75,68,60,64,60,54,87,74,56,30.01,29.89,9,2,9,0.00
2013-7-24,76,69,62,65,60,54,89,75,64,29.99,29.91,8,2,8,0.00
2013-7-25,73,68,60,63,59,52,86,74,67,30.03,29.94,9,2,9,0.00
2013-7-26,79,68,58,60,54,40,87,64,30,30.07,29.99,22,3,22,0.00
2013-7-27,75,66,57,57,52,47,81,62,41,30.06,29.91,13,3,15,0.00
2013-7-28,69,64,56,61,56,50,88,75,60,29.94,29.84,11,2,11,0.00
2013-7-29,70,65,59,61,58,53,86,77,68,29.94,29.85,7,2,7,0.00
2013-7-30,70,66,60,62,59,56,88,78,70,30.06,29.91,8,2,8,0.00
2013-7-31,71,66,60,63,60,56,93,80,72,30.04,29.90,15,2,15,0.02
2013-8-1,68,65,61,62,60,57,94,85,75,29.96,29.90,15,3,15,0.35
2013-8-2,62,61,60,58,58,56,92,89,86,30.07,29.93,11,2,12,0.05
2013-8-3,69,64,60,61,59,57,91,85,72,30.08,29.99,6,1,6,0.00
2013-8-4,73,67,62,63,61,59,90,81,65,30.00,29.87,6,2,8,0.00
2013-8-5,76,68,61,64,60,54,91,77,58,29.95,29.85,8,1,9,0.00
2013-8-6,73,67,62,64,60,54,87,77,70,29.94,29.84,7,1,7,0.00
2013-8-7,75,69,62,65,60,54,84,74,61,29.93,29.85,8,2,8,0.00
2013-8-8,74,68,62,64,61,56,90,80,69,29.96,29.84,8,2,8,0.00
2013-8-9,84,71,61,69,63,58,92,76,58,29.88,29.72,10,2,10,0.00
2013-8-10,74,69,64,66,62,58,87,78,66,29.91,29.78,12,2,13,0.00
2013-8-11,71,65,62,62,59,56,91,82,73,29.99,29.89,10,1,11,0.00
2013-8-12,71,65,62,62,59,56,87,81,71,30.00,29.93,10,2,11,0.00
2013-8-13,74,66,60,62,59,55,87,77,60,30.03,29.87,9,2,9,0.00
2013-8-14,69,66,60,64,60,54,92,81,70,29.88,29.82,15,2,15,0.06
2013-8-15,69,66,64,65,63,61,94,89,81,29.91,29.84,15,2,15,0.02
2013-8-16,66,65,63,64,62,61,94,91,85,29.94,29.89,11,2,11,0.06
2013-8-17,72,67,63,64,61,58,95,82,65,29.97,29.90,17,2,17,0.01
2013-8-18,72,65,61,62,59,56,89,80,68,30.04,29.97,15,2,15,0.00
2013-8-19,69,64,60,60,57,54,87,79,67,30.04,29.96,12,2,12,0.00
2013-8-20,74,66,58,58,53,47,91,67,39,30.10,30.01,17,2,17,0.00
2013-8-21,80,67,56,60,55,51,85,66,39,30.04,29.88,11,2,11,0.00
2013-8-22,74,67,59,64,59,54,85,74,63,29.89,29.71,8,1,8,0.00
2013-8-23,70,65,61,61,58,53,88,79,59,29.80,29.71,18,3,18,0.01
2013-8-24,69,63,58,62,58,55,90,83,75,29.84,29.77,10,2,10,0.00
2013-8-25,71,63,56,60,55,49,91,76,55,29.88,29.77,8,2,10,0.00
2013-8-26,69,63,58,61,56,50,90,77,63,29.84,29.76,13,2,14,0.11
2013-8-27,70,63,58,62,58,56,94,85,72,29.85,29.76,12,2,12,0.20
2013-8-28,70,63,58,63,60,56,95,88,77,29.83,29.75,11,1,11,0.13
2013-8-29,67,64,62,64,62,60,95,92,85,29.86,29.78,23,4,23,0.60
2013-8-30,72,64,59,61,58,56,94,83,64,30.10,29.85,13,2,14,0.02
2013-8-31,78,64,55,63,58,53,95,83,52,30.05,29.77,9,2,9,0.00
2013-9-1,72,65,58,63,59,55,92,80,64,29.81,29.71,6,1,6,0.00
2013-9-2,73,66,61,63,60,57,91,82,67,29.87,29.77,7,1,7,0.00
2013-9-3,72,63,60,63,60,57,95,88,68,29.98,29.86,16,1,16,0.36
2013-9-4,74,65,57,64,60,56,96,85,68,30.00,29.93,11,1,13,0.00
2013-9-5,67,63,59,63,60,57,95,91,82,29.99,29.84,16,1,16,0.02
2013-9-6,66,63,60,62,60,59,96,91,82,30.01,29.83,8,1,8,0.00
2013-9-7,69,64,61,63,61,59,96,89,78,30.04,29.95,10,1,10,0.03
2013-9-8,70,63,60,63,60,58,96,90,76,30.04,29.94,6,1,6,0.00
2013-9-9,75,66,58,64,60,56,94,83,61,30.01,29.91,11,2,11,0.00
2013-9-10,80,67,58,62,60,55,94,78,51,29.96,29.84,10,1,10,0.00
2013-9-11,84,71,60,67,61,57,89,72,50,29.91,29.82,8,1,8,0.00
2013-9-12,77,70,63,65,60,56,90,73,57,29.91,29.79,5,1,5,0.00
2013-9-13,68,62,60,61,60,58,95,92,70,29.89,29.77,8,2,8,0.00
2013-9-14,65,61,60,62,60,58,97,95,89,29.82,29.68,7,1,7,0.00
2013-9-15,64,60,59,62,59,58,98,97,93,29.73,29.61,20,2,20,0.50
2013-9-16,63,60,55,60,58,54,97,95,87,29.83,29.65,10,1,10,0.94
2013-9-17,66,58,53,58,54,50,98,86,68,29.83,29.75,11,1,11,0.01
2013-9-18,64,58,50,56,52,49,95,82,68,29.99,29.83,8,1,9,0.00
2013-9-19,66,60,55,57,53,49,84,77,62,29.98,29.66,8,2,9,0.00
2013-9-20,66,61,57,57,54,49,95,79,59,29.67,29.50,15,1,15,0.19
2013-9-21,64,59,56,58,55,51,95,88,75,29.64,29.53,9,1,9,0.03
2013-9-22,59,56,54,55,53,50,94,89,81,29.58,29.40,24,5,25,0.99
2013-9-23,63,56,50,54,50,46,90,80,63,29.86,29.57,7,2,10,0.07
2013-9-24,58,51,47,52,47,44,93,86,70,29.86,29.79,11,1,12,0.61
2013-9-25,68,54,46,53,47,40,94,79,41,29.94,29.82,16,1,16,0.00
2013-9-26,61,54,47,53,48,44,91,81,72,30.05,29.94,12,2,12,0.00
2013-9-27,54,51,49,51,49,46,95,90,74,30.00,29.72,9,1,10,0.47
2013-9-28,57,53,51,54,50,48,95,90,76,29.72,29.14,27,6,35,0.61
2013-9-29,53,52,50,51,49,46,95,91,83,29.37,28.97,33,8,33,0.81
2013-9-30,54,51,49,51,47,44,94,87,78,29.76,29.13,19,4,19,0.25
2013-10-1,55,49,46,48,45,43,95,87,71,30.01,29.76,11,2,11,0.47
2013-10-2,54,48,44,50,46,43,96,92,80,30.14,29.98,8,1,9,0.40
2013-10-3,54,48,42,49,45,41,96,89,79,30.39,30.14,10,1,10,0.01
2013-10-4,53,49,44,49,46,42,95,90,81,30.42,30.28,9,2,10,0.01
2013-10-5,59,54,51,53,50,47,93,87,76,30.29,30.08,12,2,12,0.01
2013-10-6,63,56,50,55,52,49,97,86,66,30.08,29.71,12,2,13,0.03
2013-10-7,59,55,49,52,49,47,95,82,67,29.87,29.71,20,3,22,0.14
2013-10-8,59,52,46,48,44,42,92,76,59,30.05,29.86,14,3,15,0.00
2013-10-9,54,49,45,48,44,41,91,83,72,30.08,29.88,8,1,9,0.00
2013-10-10,57,50,44,49,45,41,93,83,65,30.00,29.87,14,2,14,0.00
2013-10-11,52,47,42,46,44,40,95,87,77,30.09,30.00,4,0,4,0.00
2013-10-12,58,50,44,50,46,43,96,87,71,30.16,30.02,13,1,15,0.01
2013-10-13,55,49,44,50,45,41,93,87,71,30.31,30.16,8,1,8,0.00
2013-10-14,61,50,44,52,46,42,95,87,66,30.38,30.30,7,1,7,0.01
2013-10-15,51,48,46,49,46,44,97,93,89,30.33,30.13,5,0,6,0.00
2013-10-16,60,50,45,52,48,45,97,91,72,30.17,30.10,5,1,6,0.02
2013-10-17,56,48,44,51,47,42,97,94,84,30.24,30.14,7,1,7,0.01
2013-10-18,48,45,41,47,44,40,98,97,96,30.21,30.10,5,0,5,0.02
2013-10-19,50,47,44,49,46,43,98,97,95,30.15,30.09,7,0,7,0.01
2013-10-20,50,47,46,48,46,45,98,96,92,30.17,30.09,6,0,6,0.00
2013-10-21,49,47,45,48,46,44,98,98,97,30.13,30.05,4,0,4,0.01
2013-10-22,58,48,43,53,46,42,98,96,81,30.09,29.98,5,0,5,0.02
2013-10-23,56,48,43,52,47,42,98,95,83,30.01,29.93,4,0,4,0.01
2013-10-24,57,49,44,52,47,43,97,94,82,30.05,29.96,9,1,9,0.02
2013-10-25,50,47,44,48,46,44,98,96,92,30.28,30.05,5,0,5,0.01
2013-10-26,54,50,47,48,47,45,95,89,77,30.30,30.08,13,1,14,0.00
2013-10-27,62,53,46,49,44,30,94,72,33,30.08,29.89,13,1,14,0.00
2013-10-28,59,50,44,44,36,29,80,59,42,30.01,29.87,8,1,8,0.00
2013-10-29,55,47,42,44,37,32,82,69,49,29.96,29.90,8,1,8,0.00
2013-10-30,51,47,42,46,41,36,95,82,70,30.03,29.95,11,2,11,0.13
2013-10-31,51,48,46,49,47,44,96,94,92,30.18,30.00,7,1,9,0.06
2013-11-1,54,50,49,50,48,47,96,93,85,30.19,29.73,13,1,13,0.46
2013-11-2,49,45,42,48,43,40,96,94,91,29.78,29.40,20,2,20,1.72
2013-11-3,51,41,36,41,37,33,96,86,57,30.06,29.79,9,1,9,0.01
2013-11-4,45,41,36,38,34,29,90,78,54,30.13,30.01,15,1,15,0.00
2013-11-5,44,41,38,41,38,31,96,87,62,30.20,29.98,8,1,9,0.06
2013-11-6,48,44,38,42,40,37,95,86,72,30.27,29.92,11,1,11,0.17
2013-11-7,52,48,43,48,45,41,96,91,82,29.92,29.57,22,2,22,0.29
2013-11-8,51,46,40,46,42,38,96,89,77,30.06,29.84,9,1,9,0.02
2013-11-9,47,45,43,44,43,40,95,91,78,30.09,30.05,11,1,12,0.12
2013-11-10,47,43,40,44,41,39,96,93,84,30.13,30.08,9,1,9,0.00
2013-11-11,52,46,42,44,42,40,93,85,67,30.13,29.92,11,1,11,0.00
2013-11-12,57,52,48,51,48,43,92,86,68,30.22,29.87,21,3,21,0.26
2013-11-13,55,51,47,50,47,44,94,87,79,30.32,30.21,8,1,9,0.00
2013-11-14,53,48,43,47,43,38,96,85,64,30.23,29.96,10,2,12,0.00
2013-11-15,44,42,40,40,39,37,95,91,84,29.96,29.22,24,2,24,0.51
2013-11-16,46,42,37,40,35,28,91,78,56,29.65,29.25,13,2,13,0.00
2013-11-17,48,43,38,44,39,32,91,85,78,29.79,29.65,12,1,12,0.02
2013-11-18,46,43,41,42,41,39,95,91,84,29.79,29.51,10,1,10,0.33
2013-11-19,41,38,32,39,30,20,93,72,44,30.04,29.51,33,5,33,0.00
2013-11-20,41,34,30,32,28,25,91,79,62,30.48,30.05,10,1,10,0.00
2013-11-21,42,35,31,35,30,27,92,84,73,30.64,30.48,6,1,6,0.00
2013-11-22,45,37,33,37,33,30,92,85,67,30.63,30.42,8,1,8,0.00
2013-11-23,46,39,34,40,36,32,94,88,74,30.42,30.17,7,1,7,0.00
2013-11-24,48,42,37,42,39,35,96,89,79,30.20,30.13,5,0,5,0.00
2013-11-25,49,43,38,43,39,36,95,87,77,30.26,30.20,7,1,7,0.00
2013-11-26,46,42,38,41,38,35,93,87,76,30.21,30.03,10,1,10,0.00
2013-11-27,49,45,42,44,41,37,93,85,77,30.06,29.91,9,0,9,0.01
2013-11-28,47,45,42,44,42,40,95,91,86,30.12,29.96,5,0,5,0.00
2013-11-29,47,45,44,45,44,43,97,94,91,30.21,30.10,5,0,7,0.39
2013-11-30,46,44,43,45,43,41,96,95,91,30.23,29.94,10,2,10,0.65
2013-12-1,55,46,37,49,43,33,96,89,66,29.94,29.61,16,2,16,0.40
2013-12-2,46,38,33,36,31,23,92,76,54,30.08,29.67,14,2,15,0.06
2013-12-3,42,34,29,31,28,25,91,78,58,30.30,30.09,6,1,6,0.00
2013-12-4,38,32,29,30,26,22,93,78,58,30.33,30.27,6,1,6,0.00
2013-12-5,34,31,26,25,23,18,88,71,59,30.27,30.16,11,2,13,0.00
2013-12-6,34,27,23,24,13,-2,89,58,32,30.29,30.17,9,1,10,0.00
2013-12-7,32,25,21,19,12,-1,81,58,34,30.35,30.28,8,1,8,0.00
2013-12-8,33,28,25,24,20,18,83,72,62,30.49,30.34,6,0,6,0.00
2013-12-9,32,31,29,29,26,24,93,84,79,30.49,30.41,6,0,7,0.00
2013-12-10,36,33,31,32,31,29,96,91,84,30.42,30.37,6,0,6,0.01
2013-12-11,40,36,34,34,33,31,91,86,80,30.38,30.09,9,1,10,0.00
2013-12-12,40,38,35,39,36,32,95,91,84,30.10,29.92,10,1,10,0.49
2013-12-13,44,41,39,43,40,38,97,96,95,30.35,30.06,10,1,10,0.08
2013-12-14,47,45,42,44,43,40,97,93,88,30.35,30.21,15,2,17,0.02
2013-12-15,50,45,39,46,43,38,96,93,87,30.35,30.19,14,1,14,0.03
2013-12-16,43,40,36,42,39,35,98,96,93,30.42,30.21,6,0,6,0.01
2013-12-17,44,41,38,41,40,38,97,93,88,30.21,29.98,11,1,11,0.05
2013-12-18,43,40,34,42,34,28,95,81,67,30.21,29.94,16,3,17,0.00
2013-12-19,37,34,31,31,28,25,91,79,68,30.30,30.12,8,1,8,0.00
2013-12-20,34,32,32,33,31,30,96,95,91,30.12,29.67,10,1,10,0.02
2013-12-21,37,35,34,36,34,32,96,95,92,30.11,29.82,7,1,7,0.44
2013-12-22,42,38,36,41,37,35,97,96,95,30.22,30.10,10,1,12,0.37
2013-12-23,50,45,36,46,41,34,97,88,76,30.41,29.98,12,2,13,0.06
2013-12-24,47,39,36,40,37,34,96,92,77,30.55,30.41,5,0,5,0.00
2013-12-25,42,38,35,38,36,34,96,92,82,30.49,30.33,8,1,8,0.11
2013-12-26,46,41,38,42,39,37,96,94,86,30.34,30.13,8,0,9,0.09
2013-12-27,50,43,38,45,40,37,97,91,77,30.27,29.95,13,2,14,0.08
2013-12-28,44,40,38,42,39,36,97,94,89,30.46,30.27,5,0,5,0.01
2013-12-29,42,40,38,41,39,37,97,96,95,30.42,30.26,6,0,6,0.06
2013-12-30,44,42,40,42,40,39,96,95,92,30.26,30.02,9,1,9,0.01
2013-12-31,44,43,40,44,42,40,98,97,93,30.33,30.09,5,0,5,0.05
2014-1-1,43,41,40,42,40,39,98,96,92,30.35,30.18,8,1,8,0.09
2014-1-2,46,43,40,43,41,36,97,93,84,30.19,29.76,19,2,20,0.68